Weather in Krasnoshchekovo

Russia / Orenburg Oblast     51°17′41″N   57°15′32″E
temp.,
°C
wind,
m/s
gust,
m/s
humid.,
%
clouds,
%
prec.,
mm/h
press.,
hPa
HPBL,
m
19 september, sun
sun1923:00+6wnw22585 0.0 101823
02:00+4wnw37695 0.0 1019176
05:00+3wnw410795 0.0 1020290
08:00+3wnw26845 0.0 1022270
11:00+8nw685077 0.0 10221182
14:00+11wnw78343 0.0 10221456
17:00+12nw78310 0.0 10221590
20:00+8nw2244100 0.0 102320
20 september, mon
mon2023:00+6wnw2249100 0.0 102410
02:00+5wnw115514 0.0 102410
05:00+3nnw22605 0.0 102510
08:00+4n115714 0.0 102642
11:00+10nnw223969 0.0 1025791
14:00+13nw222793 0.0 10241244
17:00+14nw2224100 0.0 10231307
20:00+10nnw2234100 0.0 102415
21 september, tue
tue2123:00+8nne114184 0.0 102510
02:00+8e2541100 0.0 1025105
05:00+7e4843100 0.0 1026186
08:00+7ese51045100 0.0 1026322
11:00+11ese6834100 0.0 1026635
14:00+14se5527100 0.0 10251134
17:00+14se4527100 0.0 1025970
20:00+11ese5932100 0.0 1024235
22 september, wed
wed2223:00+10ese4836100 0.0 1025220
02:00+10ese3736100 0.0 1024261
05:00+10ese3537100 0.0 1025202
08:00+10ese3537100 0.0 1025241
11:00+13se3430100 0.0 1025613
14:00+16se332569 0.0 10241284
17:00+17ese3325100 0.0 10241534
20:00+14e363398 0.0 1024137
23 september, thu
thu2323:00+12ese3536100 0.0 1025113
02:00+12ese2237100 0.0 102661
05:00+11ese2338100 0.0 102691
08:00+12ese244095 0.0 1027152
11:00+16ese563158 0.0 1027856
14:00+18ese662711 0.0 10271529
17:00+18ese672274 0.0 10261672
20:00+14e5103299 0.0 1026231